Tiempo cada hora Barlozno

Hoy, 28 Febrero, Domingo

Tiempo Temperatura Precipitaciones Viento Presión Humedad
00:00 0°C° 0 mm 3 mps 767 mmHg 83%
01:00 +2°C° 0 mm 2 mps 767 mmHg 83%
02:00 +1°C° 0 mm 3 mps 767 mmHg 87%
03:00 0°C° 0 mm 3 mps 766 mmHg 90%
04:00 0°C° 0 mm 3 mps 766 mmHg 93%
05:00 0°C° 0 mm 4 mps 766 mmHg 94%
06:00 0°C° 0 mm 4 mps 766 mmHg 94%
07:00 +1°C° 0 mm 4 mps 766 mmHg 94%
08:00 +1°C° 0 mm 4 mps 766 mmHg 91%
09:00 +3°C° 0 mm 4 mps 766 mmHg 89%
10:00 +2°C° 0 mm 5 mps 766 mmHg 87%
11:00 +3°C° 0 mm 5 mps 766 mmHg 84%
12:00 +3°C° 0 mm 5 mps 766 mmHg 82%
13:00 +5°C° 0 mm 5 mps 766 mmHg 80%
14:00 +5°C° 0 mm 5 mps 766 mmHg 80%
15:00 +3°C° 0 mm 5 mps 766 mmHg 79%
16:00 +4°C° 0 mm 4 mps 765 mmHg 79%
17:00 +3°C° 0 mm 4 mps 766 mmHg 83%
18:00 +3°C° 0 mm 4 mps 766 mmHg 87%
19:00 +1°C° 0 mm 4 mps 766 mmHg 91%
20:00 +1°C° 0 mm 3 mps 766 mmHg 91%
21:00 +1°C° 0 mm 3 mps 766 mmHg 92%
22:00 +1°C° 0 mm 3 mps 767 mmHg 92%
23:00 +2°C° 0 mm 2 mps 767 mmHg 92%

Mañana, 1 Marzo, Lunes

Tiempo Temperatura Precipitaciones Viento Presión Humedad
00:00 +2°C° 0 mm 2 mps 767 mmHg 91%
01:00 +1°C° 0 mm 2 mps 767 mmHg 91%
02:00 +1°C° 0 mm 2 mps 767 mmHg 90%
03:00 +1°C° 0 mm 2 mps 767 mmHg 89%
04:00 +1°C° 0 mm 2 mps 767 mmHg 88%
05:00 +1°C° 0 mm 2 mps 767 mmHg 88%
06:00 +1°C° 0 mm 2 mps 768 mmHg 88%
07:00 +2°C° 0 mm 2 mps 768 mmHg 87%
08:00 +3°C° 0 mm 2 mps 768 mmHg 82%
09:00 +5°C° 0 mm 2 mps 768 mmHg 77%
10:00 +6°C° 0 mm 2 mps 768 mmHg 72%
11:00 +7°C° 0 mm 3 mps 768 mmHg 69%
12:00 +8°C° 0 mm 3 mps 768 mmHg 66%
13:00 +9°C° 0 mm 3 mps 768 mmHg 64%
14:00 +9°C° 0 mm 3 mps 767 mmHg 65%
15:00 +9°C° 0 mm 3 mps 767 mmHg 66%
16:00 +9°C° 0 mm 3 mps 767 mmHg 67%
17:00 +8°C° 0 mm 3 mps 767 mmHg 73%
18:00 +5°C° 0 mm 3 mps 766 mmHg 78%
19:00 +4°C° 0 mm 3 mps 766 mmHg 84%
20:00 +4°C° 0 mm 4 mps 766 mmHg 83%
21:00 +3°C° 0 mm 4 mps 766 mmHg 83%
22:00 +1°C° 0 mm 4 mps 766 mmHg 83%
23:00 +1°C° 0 mm 4 mps 766 mmHg 85%

Pasado mañana, 2 Marzo, Martes

Tiempo Temperatura Precipitaciones Viento Presión Humedad
00:00 +1°C° 0 mm 4 mps 766 mmHg 87%
01:00 +1°C° 0 mm 4 mps 766 mmHg 89%
02:00 0°C° 0 mm 4 mps 765 mmHg 90%
03:00 0°C° 0 mm 4 mps 765 mmHg 90%
04:00 0°C° 0 mm 4 mps 765 mmHg 90%
05:00 0°C° 0 mm 4 mps 765 mmHg 91%
06:00 0°C° 0 mm 4 mps 765 mmHg 91%
07:00 +1°C° 0 mm 3 mps 765 mmHg 92%
08:00 +1°C° 0 mm 4 mps 765 mmHg 87%
09:00 +4°C° 0 mm 4 mps 765 mmHg 82%
10:00 +5°C° 0 mm 5 mps 765 mmHg 77%
11:00 +6°C° 0 mm 4 mps 766 mmHg 73%
12:00 +7°C° 0 mm 4 mps 766 mmHg 69%
13:00 +8°C° 0 mm 4 mps 766 mmHg 66%
14:00 +8°C° 0 mm 4 mps 766 mmHg 67%
15:00 +9°C° 0 mm 3 mps 766 mmHg 68%
16:00 +9°C° 0 mm 3 mps 766 mmHg 69%
17:00 +7°C° 0 mm 2 mps 766 mmHg 75%
18:00 +6°C° 0 mm 2 mps 766 mmHg 82%
19:00 +4°C° 0 mm 2 mps 766 mmHg 88%
20:00 +5°C° 0 mm 1 mps 766 mmHg 90%
21:00 +4°C° 0 mm 1 mps 766 mmHg 92%
22:00 +4°C° 0 mm 1 mps 766 mmHg 93%
23:00 +3°C° 0 mm 1 mps 767 mmHg 93%

3 Marzo, Miércoles

Tiempo Temperatura Precipitaciones Viento Presión Humedad
00:00 +2°C° 0 mm 0 mps 767 mmHg 94%
01:00 +1°C° 0 mm 0 mps 767 mmHg 94%
02:00 +1°C° 0 mm 0 mps 766 mmHg 94%
03:00 +1°C° 0 mm 0 mps 766 mmHg 94%
04:00 +1°C° 0 mm 0 mps 766 mmHg 94%
05:00 +2°C° 0 mm 1 mps 765 mmHg 95%
06:00 +2°C° 0 mm 1 mps 765 mmHg 95%
07:00 +2°C° 0 mm 1 mps 765 mmHg 95%
08:00 +3°C° 0 mm 1 mps 765 mmHg 89%
09:00 +4°C° 0 mm 2 mps 765 mmHg 83%
10:00 +5°C° 0 mm 2 mps 765 mmHg 76%
11:00 +6°C° 0 mm 2 mps 764 mmHg 71%
12:00 +7°C° 0 mm 2 mps 764 mmHg 65%
13:00 +9°C° 0 mm 2 mps 763 mmHg 60%
14:00 +9°C° 0 mm 2 mps 763 mmHg 59%
15:00 +9°C° 0 mm 2 mps 762 mmHg 59%
16:00 +9°C° 0 mm 2 mps 761 mmHg 59%
17:00 +7°C° 0 mm 2 mps 761 mmHg 64%
18:00 +6°C° 0 mm 2 mps 760 mmHg 70%
19:00 +4°C° 0 mm 3 mps 760 mmHg 75%
20:00 +3°C° 0 mm 3 mps 759 mmHg 78%
21:00 +3°C° 0 mm 3 mps 759 mmHg 80%
22:00 +2°C° 0 mm 3 mps 758 mmHg 83%
23:00 +2°C° 0 mm 3 mps 757 mmHg 85%

4 Marzo, Jueves

Tiempo Temperatura Precipitaciones Viento Presión Humedad
00:00 +2°C° 0 mm 3 mps 757 mmHg 87%
01:00 +2°C° 0 mm 2 mps 756 mmHg 89%
02:00 +1°C° 0 mm 3 mps 756 mmHg 90%
03:00 +1°C° 0 mm 3 mps 755 mmHg 91%
04:00 +1°C° 0 mm 3 mps 754 mmHg 92%
05:00 +1°C° 0 mm 3 mps 754 mmHg 93%
06:00 0°C° 0 mm 3 mps 753 mmHg 94%
07:00 0°C° 0 mm 3 mps 753 mmHg 95%
08:00 +2°C° 0 mm 3 mps 753 mmHg 90%
09:00 +3°C° 0 mm 3 mps 752 mmHg 85%
10:00 +5°C° 0 mm 3 mps 752 mmHg 80%
11:00 +5°C° 0 mm 3 mps 752 mmHg 77%
12:00 +5°C° 0 mm 3 mps 752 mmHg 75%
13:00 +7°C° 0 mm 3 mps 752 mmHg 72%
14:00 +5°C° 0 mm 3 mps 752 mmHg 75%
15:00 +4°C° 0 mm 4 mps 752 mmHg 78%
16:00 +3°C° 0 mm 4 mps 751 mmHg 81%
17:00 +1°C° 0 mm 4 mps 752 mmHg 82%
18:00 0°C° 0 mm 5 mps 752 mmHg 82%
19:00 -1°C° 0 mm 5 mps 752 mmHg 83%
20:00 -2°C° 0 mm 5 mps 752 mmHg 79%
21:00 -2°C° 0 mm 5 mps 753 mmHg 76%
22:00 -2°C° 0 mm 5 mps 753 mmHg 72%
23:00 -2°C° 0 mm 5 mps 753 mmHg 73%

5 Marzo, Viernes

Tiempo Temperatura Precipitaciones Viento Presión Humedad
00:00 -2°C° 0 mm 5 mps 754 mmHg 73%
01:00 -3°C° 0 mm 4 mps 754 mmHg 73%
02:00 -3°C° 0 mm 4 mps 754 mmHg 72%
03:00 -3°C° 0 mm 4 mps 754 mmHg 71%
04:00 -3°C° 0 mm 4 mps 755 mmHg 70%
05:00 -4°C° 0 mm 4 mps 755 mmHg 71%
06:00 -4°C° 0 mm 4 mps 756 mmHg 72%
07:00 -5°C° 0 mm 5 mps 756 mmHg 73%
08:00 -4°C° 0 mm 5 mps 757 mmHg 64%
09:00 -2°C° 0 mm 5 mps 757 mmHg 55%
10:00 -2°C° 0 mm 5 mps 757 mmHg 46%
11:00 -1°C° 0 mm 5 mps 758 mmHg 46%
12:00 -1°C° 0 mm 5 mps 758 mmHg 46%
13:00 -2°C° 0 mm 6 mps 758 mmHg 45%
14:00 -2°C° 0 mm 6 mps 758 mmHg 45%
15:00 -2°C° 0 mm 6 mps 759 mmHg 44%
16:00 -3°C° 0 mm 6 mps 759 mmHg 44%
17:00 -2°C° 0 mm 5 mps 760 mmHg 50%
18:00 -3°C° 0 mm 4 mps 760 mmHg 56%
19:00 -4°C° 0 mm 3 mps 760 mmHg 62%
20:00 -4°C° 0 mm 3 mps 761 mmHg 62%
21:00 -4°C° 0 mm 3 mps 761 mmHg 61%
22:00 -4°C° 0 mm 3 mps 762 mmHg 60%
23:00 -4°C° 0 mm 3 mps 762 mmHg 59%
Mostrar más

Necesitamos Su Consentimiento

Meteoprog y nuestros Proveedores de Servicios pueden almacenar y acceder a sus datos personales como cookies, identificadores de dispositivo u otras tecnologías similares de su dispositivo y procesar dichos datos para personalizar contenido y anuncios, además de ofrecer funciones de redes sociales y analizar el tráfico.

  • Almacenar y/o acceder a información en su dispositivo

    Se puede almacenar o acceder a cookies, identificadores de dispositivo u otra información de su dispositivo para los fines anteriormente indicados.

  • Anuncios y contenido personalizados, medición de anuncios y contenido, percepciones del público, y desarrollo de productos

    Los anuncios y el contenido pueden personalizarse en base a su perfil. Se pueden añadir más datos para personalizar mejor los anuncios y contenidos. Se puede medir el rendimiento de los anuncios y contenidos. Se puede obtener la percepción sobre el público que ha visto los anuncios y contenidos. Dichos datos pueden usarse para desarrollar o mejorar la experiencia del usuario, sistemas y software.

Al hacer clic en ‘Estoy De Acuerdo’ usted permitirá el uso de las cookies, identificadores de dispositivo, balizas web u otras tecnologías similares indicadas. Su configuración puede cambiarse desde el navegador de su dispositivo.

Para ciertos fines, los intereses legítimos pueden ser considerados por encima del consentimiento. Puede leer más sobre ello en nuestra Política de Privacidad y Cookies.